Chamberlain, SD

2:22 AM CDT on August 21, 2017 (GMT -0500)
Chamberlain

Weather History for K9V9 - March, 2014

Change the Weather History Date:

Thursday, March 6, 2014

  Actual Average Record
Temperature  
Mean Temperature 38 °F -  
Max Temperature 52 °F 32 °F 77 °F (2016)
Min Temperature 25 °F 14 °F 1 °F (2008)
Degree Days  
Heating Degree Days 26    
Moisture  
Dew Point 30 °F    
Average Humidity 71    
Maximum Humidity 86    
Minimum Humidity 54    
Precipitation  
Precipitation 0.00 in - - ()
Sea Level Pressure  
Sea Level Pressure 29.79 in    
Wind  
Wind Speed 12 mph (SSE)    
Max Wind Speed 20 mph    
Max Gust Speed 21 mph    
Averages and records for this station are not official NWS values.
T = Trace of Precipitation, MM = Missing Value Source: NWS Daily Summary

Daily Weather History Graph

Daily Weather History Graph

Search for Another Location

Airport or City:

Trip Planner

Search our weather history database for the weather conditions in past years. The results will help you decide how hot, cold, wet, or windy it might be!

Date:

Astronomy

Mar. 06, 2014 Rise Set
Actual Time 7:05 AM CST 6:32 PM CST
Civil Twilight 6:36 AM CST 7:01 PM CST
Nautical Twilight 6:03 AM CST 7:34 PM CST
Astronomical Twilight 5:29 AM CST 8:07 PM CST
Moon 10:03 AM CST (3/6) No Moon Set
Length of Visible Light 12h 24m
Length of Day
11h 27m
Waxing Crescent, 32% of the Moon is Illuminated
Mar 6
Waxing Crescent
Mar 8
First Quarter
Mar 16
Full
Mar 23
Last Quarter
Mar 30
New

Hourly Weather History & Observations

Time (CST) Temp. Windchill Dew Point Humidity Pressure Visibility Wind Dir Wind Speed Gust Speed Precip Events Conditions
12:52 AM 25.0 °F 12.2 °F 18.0 °F 75% 30.05 in - SSE 16.1 mph - N/A   Unknown
1:52 AM 26.1 °F 15.6 °F 19.0 °F 75% 30.01 in - South 11.5 mph - N/A   Unknown
2:52 AM 30.9 °F 18.7 °F 23.0 °F 72% 29.98 in - South 19.6 mph - N/A   Unknown
3:52 AM 30.9 °F 19.8 °F 23.0 °F 72% 29.94 in - South 16.1 mph - N/A   Unknown
4:52 AM 32.0 °F 23.6 °F 24.1 °F 73% 29.91 in - South 10.4 mph 20.7 mph N/A   Unknown
5:52 AM 32.0 °F 22.5 °F 24.1 °F 73% 29.88 in - South 12.7 mph - N/A   Unknown
6:52 AM 32.0 °F 22.5 °F 25.0 °F 75% 29.86 in - South 12.7 mph - N/A   Unknown
7:52 AM 30.9 °F 22.2 °F 24.1 °F 76% 29.86 in - South 10.4 mph - N/A   Unknown
8:52 AM 34.0 °F 26.0 °F 26.1 °F 73% 29.85 in - South 10.4 mph - N/A   Unknown
9:52 AM 39.9 °F 32.9 °F 28.9 °F 65% 29.83 in - South 11.5 mph - N/A   Unknown
10:52 AM 41.0 °F 35.8 °F 30.0 °F 65% 29.82 in - SSW 8.1 mph - N/A   Unknown
11:52 AM 46.0 °F 41.9 °F 32.0 °F 58% 29.79 in - SSW 8.1 mph - N/A   Unknown
12:52 PM 46.9 °F - 33.1 °F 59% 29.78 in - SSW 10.4 mph - N/A   Unknown
1:52 PM 48.9 °F - 34.0 °F 56% 29.74 in - SSW 8.1 mph - N/A   Unknown
2:52 PM 51.1 °F - 35.1 °F 54% 29.70 in - South 8.1 mph - N/A   Unknown
3:52 PM 52.0 °F - 37.9 °F 59% 29.69 in - SSE 6.9 mph - N/A   Unknown
4:52 PM 50.0 °F - 37.9 °F 63% 29.68 in - SE 6.9 mph - N/A   Unknown
5:52 PM 46.9 °F - 37.9 °F 71% 29.66 in - SSE 6.9 mph - N/A   Unknown
6:52 PM 41.0 °F 35.2 °F 35.1 °F 79% 29.65 in - SE 9.2 mph - N/A   Unknown
7:52 PM 41.0 °F 37.1 °F 34.0 °F 76% 29.66 in - ESE 5.8 mph - N/A   Unknown
8:52 PM 39.9 °F 35.1 °F 34.0 °F 79% 29.65 in - SE 6.9 mph - N/A   Unknown
9:52 PM 37.9 °F 33.5 °F 33.1 °F 83% 29.64 in - ESE 5.8 mph - N/A   Unknown
10:52 PM 37.0 °F 31.0 °F 33.1 °F 86% 29.65 in - NE 8.1 mph - N/A   Unknown
11:52 PM 39.0 °F 33.4 °F 34.0 °F 82% 29.68 in - NNW 8.1 mph - N/A   Unknown